EW0158 Weather Reports


Display with metric or nautical units.
time (UTC)temp
F
wind
direction
speed
MPH
gust
MPH
rain 1hr
in
rain 24hr
in
rain mn
in
humidity
%
barometer
mb
20260509115016 65 67 3.0 6.0 0.00 0.00 0.00 100 1013.8
20260509114117 65 45 6.0 9.0 0.00 0.00 0.00 100 1013.9
20260509113116 65 45 7.0 11.0 0.00 0.00 0.00 100 1013.8
20260509112016 65 45 9.0 13.0 0.00 0.00 0.00 100 1014.2
20260509111016 65 45 7.0 12.0 0.00 0.00 0.00 100 1014.2
20260509110016 65 45 11.0 14.0 0.00 0.00 0.00 100 1014.3
20260509105016 65 22 12.0 18.0 0.00 0.00 0.00 100 1014.5
20260509104016 66 0 11.0 18.0 0.00 0.00 0.00 100 1014.5
20260509103016 66 0 6.0 10.0 0.00 0.00 0.00 100 1014.0
20260509101016 65 90 3.0 5.0 0.00 0.00 0.00 100 1013.4
20260509100117 65 157 2.0 4.0 0.00 0.00 0.00 100 1013.1
20260509095016 65 0.0 0.0 0.00 0.00 0.00 100 1012.5
20260509094016 66 0.0 0.0 0.00 0.00 0.00 100 1012.5
20260509093016 66 0.0 0.0 0.00 0.00 0.00 100 1012.5
20260509092016 66 0.0 0.0 0.00 0.00 0.00 100 1012.6
20260509090016 66 180 1.0 2.0 0.00 0.00 0.00 100 1012.6
20260509085016 66 180 2.0 4.0 0.00 0.00 0.00 100 1012.7
20260509083016 66 180 3.0 5.0 0.00 0.00 0.00 100 1013.1
20260509082016 65 180 3.0 5.0 0.00 0.00 0.00 100 1013.0
20260509081016 65 180 2.0 5.0 0.00 0.00 0.00 100 1013.1
20260509080116 65 180 2.0 5.0 0.00 0.00 0.00 99 1012.8
20260509075015 65 0.0 1.0 0.00 0.00 0.00 99 1013.2
20260509074016 65 202 1.0 4.0 0.00 0.00 0.00 99 1013.3
20260509073016 65 202 3.0 6.0 0.00 0.00 0.00 99 1013.2
20260509071016 65 202 4.0 6.0 0.00 0.00 0.00 99 1013.4
20260509070016 65 202 5.0 9.0 0.00 0.00 0.00 99 1013.3
20260509065016 65 180 5.0 7.0 0.00 0.00 0.00 99 1013.4
20260509063016 65 202 4.0 9.0 0.00 0.00 0.00 99 1013.1
20260509061016 65 202 3.0 6.0 0.00 0.00 0.00 99 1013.2
20260509060017 65 202 4.0 7.0 0.00 0.00 0.00 99 1013.4
20260509055116 64 202 6.0 10.0 0.00 0.00 0.00 99 1013.5
20260509054016 64 180 4.0 6.0 0.00 0.00 0.00 99 1013.3
20260509053016 64 180 4.0 8.0 0.00 0.00 0.00 98 1013.3
20260509052016 64 180 4.0 8.0 0.00 0.00 0.00 99 1013.2
20260509051016 65 180 5.0 9.0 0.00 0.00 0.00 98 1013.5
20260509050017 65 180 5.0 8.0 0.00 0.00 0.00 98 1013.1
20260509045016 65 180 6.0 10.0 0.00 0.00 0.00 98 1013.0
20260509044016 64 202 7.0 11.0 0.00 0.00 0.00 98 1013.0
20260509043016 64 180 6.0 9.0 0.00 0.00 0.00 98 1012.7
20260509042016 64 157 3.0 5.0 0.00 0.00 0.00 98 1011.8
20260509041016 64 157 2.0 4.0 0.00 0.00 0.00 97 1011.4
20260509040016 65 157 2.0 4.0 0.00 0.00 0.00 97 1011.6
20260509035016 65 157 2.0 3.0 0.00 0.00 0.00 97 1011.5
20260509034016 66 180 2.0 4.0 0.00 0.00 0.00 97 1011.4
20260509033016 66 157 3.0 5.0 0.00 0.00 0.00 97 1011.2
20260509032016 66 157 5.0 7.0 0.00 0.00 0.00 97 1011.1
20260509031016 66 180 4.0 6.0 0.00 0.00 0.00 97 1011.1
20260509030016 66 180 3.0 5.0 0.00 0.00 0.00 96 1011.0
20260509024022 66 157 2.0 4.0 0.00 0.00 0.00 94 1010.8
20260509023016 67 180 4.0 8.0 0.00 0.00 0.00 95 1011.1
20260509022017 67 180 3.0 6.0 0.00 0.00 0.00 94 1011.1
20260509020016 68 180 4.0 8.0 0.00 0.00 0.00 94 1010.8
20260509015016 68 180 5.0 7.0 0.00 0.00 0.00 94 1010.8
20260509014016 68 180 4.0 7.0 0.00 0.00 0.00 93 1010.5
20260509013016 69 157 3.0 6.0 0.00 0.00 0.00 92 1010.5
20260509012016 70 157 4.0 7.0 0.00 0.00 0.00 91 1010.4
20260509011018 70 157 3.0 7.0 0.00 0.00 0.00 90 1010.3
20260509005016 71 180 6.0 11.0 0.00 0.00 0.00 89 1010.1
20260509004016 72 157 4.0 8.0 0.00 0.00 0.00 88 1010.1
20260509002116 73 180 6.0 11.0 0.00 0.00 0.00 86 1010.2
20260509001016 73 180 6.0 12.0 0.00 0.00 0.00 87 1010.3
20260509000016 73 157 6.0 14.0 0.00 0.00 0.00 86 1010.1
20260508235016 73 180 6.0 13.0 0.00 0.00 0.00 87 1010.2
20260508234016 74 157 5.0 12.0 0.00 0.00 0.00 85 1010.4
20260508233016 74 135 7.0 14.0 0.00 0.00 0.00 85 1010.5
20260508232016 74 157 6.0 14.0 0.00 0.00 0.00 84 1010.3
20260508231017 75 135 8.0 14.0 0.00 0.00 0.00 85 1010.5
20260508230017 75 157 5.0 11.0 0.00 0.00 0.00 83 1010.5
20260508225016 76 157 7.0 14.0 0.00 0.01 0.00 83 1010.7
20260508223016 75 180 7.0 12.0 0.00 0.01 0.00 81 1010.9
20260508222016 75 180 8.0 12.0 0.00 0.01 0.00 82 1011.0
20260508220018 76 202 6.0 11.0 0.00 0.01 0.00 81 1011.2
20260508215016 77 202 8.0 15.0 0.00 0.01 0.00 81 1011.3
20260508214016 76 202 9.0 16.0 0.00 0.01 0.00 81 1011.3
20260508213119 75 180 7.0 12.0 0.00 0.01 0.00 83 1011.3
20260508212016 75 180 7.0 14.0 0.00 0.01 0.00 82 1011.5
20260508211016 75 157 7.0 13.0 0.00 0.01 0.00 83 1011.5
20260508210017 76 180 8.0 13.0 0.00 0.01 0.00 81 1011.6
20260508205016 76 157 6.0 11.0 0.00 0.01 0.00 81 1011.8
20260508204017 76 202 6.0 12.0 0.00 0.01 0.00 80 1011.8
20260508203016 76 180 6.0 11.0 0.00 0.01 0.00 80 1012.0
20260508202017 76 180 6.0 13.0 0.00 0.01 0.00 79 1012.2
20260508201117 76 180 6.0 12.0 0.00 0.01 0.00 79 1012.1
20260508200018 76 157 7.0 13.0 0.00 0.01 0.00 80 1012.2
20260508195016 76 180 8.0 14.0 0.00 0.01 0.00 79 1012.4
20260508194016 77 202 8.0 13.0 0.00 0.01 0.00 78 1012.4
20260508192016 77 180 10.0 15.0 0.00 0.01 0.00 77 1012.6
20260508191016 77 180 8.0 13.0 0.00 0.01 0.00 80 1012.7
20260508190016 76 202 6.0 11.0 0.00 0.01 0.00 82 1012.7
20260508185017 75 202 8.0 13.0 0.00 0.01 0.00 84 1012.8
20260508184017 74 202 7.0 14.0 0.00 0.01 0.00 84 1012.9
20260508183016 73 202 8.0 12.0 0.00 0.01 0.00 85 1013.4
20260508182016 72 157 4.0 7.0 0.00 0.01 0.00 87 1013.5
20260508181021 72 202 6.0 10.0 0.00 0.01 0.00 85 1013.5
20260508180017 73 202 2.0 4.0 0.00 0.01 0.00 84 1013.6
20260508175016 74 202 5.0 10.0 0.00 0.01 0.00 84 1013.7
20260508174116 74 180 7.0 16.0 0.00 0.02 0.00 84 1013.8
20260508173018 73 202 5.0 10.0 0.00 0.03 0.00 85 1014.0
20260508172117 72 202 8.0 14.0 0.00 0.03 0.00 87 1014.2
20260508171017 72 202 6.0 10.0 0.00 0.03 0.00 87 1014.2
20260508170017 72 202 4.0 10.0 0.00 0.03 0.00 88 1014.3
20260508165017 71 202 5.0 10.0 0.00 0.03 0.00 89 1014.4
20260508164016 69 202 4.0 9.0 0.00 0.03 0.00 91 1014.3
20260508163016 68 202 4.0 7.0 0.00 0.03 0.00 92 1014.4
20260508162016 67 202 7.0 12.0 0.00 0.03 0.00 92 1014.6
20260508161016 66 180 4.0 9.0 0.00 0.03 0.00 93 1015.1
20260508160016 66 202 6.0 11.0 0.00 0.03 0.00 94 1015.1
20260508155117 65 180 7.0 11.0 0.00 0.03 0.00 95 1015.3
20260508154017 64 180 6.0 11.0 0.00 0.03 0.00 96 1015.3
20260508153016 63 202 4.0 7.0 0.00 0.04 0.00 97 1015.2
20260508152016 62 202 5.0 9.0 0.00 0.04 0.00 97 1015.4
20260508151017 62 180 5.0 10.0 0.00 0.05 0.00 97 1015.2
20260508150016 61 157 4.0 6.0 0.00 0.06 0.00 98 1015.2
20260508145016 61 157 3.0 9.0 0.00 0.06 0.00 98 1015.5
20260508144016 60 180 4.0 7.0 0.00 0.06 0.00 98 1015.5
20260508143017 60 180 3.0 5.0 0.00 0.06 0.00 98 1015.3
20260508141017 59 180 3.0 6.0 0.00 0.07 0.00 99 1015.5
20260508140017 59 90 3.0 5.0 0.00 0.07 0.00 99 1015.1
20260508135016 58 90 2.0 4.0 0.00 0.07 0.00 99 1015.2
20260508134017 58 90 2.0 3.0 0.00 0.07 0.00 99 1015.0
20260508133017 57 90 3.0 4.0 0.00 0.07 0.00 98 1015.0
20260508132017 57 90 3.0 5.0 0.00 0.07 0.00 98 1015.1
20260508125017 56 90 2.0 4.0 0.00 0.07 0.00 97 1015.1
20260508124117 56 90 4.0 5.0 0.00 0.07 0.00 97 1015.2
20260508123117 56 90 3.0 5.0 0.00 0.07 0.00 97 1015.0
20260508122118 56 90 4.0 6.0 0.00 0.07 0.00 97 1014.9
20260508121017 56 90 4.0 7.0 0.00 0.07 0.00 96 1015.3